Time,TemperatureF,DewpointF,PressureIn,WindDirection,WindDirectionDegrees,WindSpeedMPH,WindSpeedGustMPH,Humidity,HourlyPrecipIn,Conditions,Clouds,dailyrainin,SolarRadiationWatts/m^2,SoftwareType,DateUTC
2013-03-13 00:22:00,51.0,31.0,-100.00,ESE,118,0.0,5.0,47,0.00,,,0.00,0.000000,,2013-03-13 07:22:00,
2013-03-13 00:32:00,51.0,31.0,-100.00,ESE,118,0.0,5.0,47,0.00,,,0.00,0.000000,,2013-03-13 07:32:00,
2013-03-13 00:42:00,51.0,31.0,-100.00,ESE,118,0.0,5.0,47,0.00,,,0.00,0.000000,,2013-03-13 07:42:00,
2013-03-13 00:52:00,51.0,31.0,-100.00,ESE,118,0.0,5.0,47,0.00,,,0.00,0.000000,,2013-03-13 07:52:00,
2013-03-13 01:22:00,50.0,33.0,-100.00,SE,140,3.0,12.0,52,0.00,,,0.00,0.000000,,2013-03-13 08:22:00,
2013-03-13 01:32:00,50.0,33.0,-100.00,SE,140,3.0,12.0,52,0.00,,,0.00,0.000000,,2013-03-13 08:32:00,
2013-03-13 01:42:00,50.0,33.0,-100.00,SE,140,3.0,12.0,52,0.00,,,0.00,0.000000,,2013-03-13 08:42:00,
2013-03-13 01:52:00,50.0,33.0,-100.00,SE,140,3.0,12.0,52,0.00,,,0.00,0.000000,,2013-03-13 08:52:00,
2013-03-13 02:22:00,53.0,32.0,-100.00,SE,127,3.0,7.0,45,0.00,,,0.00,0.000000,,2013-03-13 09:22:00,
2013-03-13 02:32:00,53.0,32.0,-100.00,SE,127,3.0,7.0,45,0.00,,,0.00,0.000000,,2013-03-13 09:32:00,
2013-03-13 02:42:00,53.0,32.0,-100.00,SE,127,3.0,7.0,45,0.00,,,0.00,0.000000,,2013-03-13 09:42:00,
2013-03-13 02:52:00,53.0,32.0,-100.00,SE,127,3.0,7.0,45,0.00,,,0.00,0.000000,,2013-03-13 09:52:00,
2013-03-13 03:22:00,50.0,32.0,-100.00,SE,141,4.0,6.0,49,0.00,,,0.00,0.000000,,2013-03-13 10:22:00,
2013-03-13 03:32:00,50.0,32.0,-100.00,SE,141,4.0,6.0,49,0.00,,,0.00,0.000000,,2013-03-13 10:32:00,
2013-03-13 03:42:00,50.0,32.0,-100.00,SE,141,4.0,6.0,49,0.00,,,0.00,0.000000,,2013-03-13 10:42:00,
2013-03-13 03:52:00,50.0,32.0,-100.00,SE,141,4.0,6.0,49,0.00,,,0.00,0.000000,,2013-03-13 10:52:00,
2013-03-13 04:12:00,52.0,29.0,-100.00,SSE,147,4.0,7.0,41,0.00,,,0.00,0.000000,,2013-03-13 11:12:00,
2013-03-13 04:22:00,52.0,29.0,-100.00,SSE,147,4.0,7.0,41,0.00,,,0.00,0.000000,,2013-03-13 11:22:00,
2013-03-13 04:32:00,52.0,29.0,-100.00,SSE,147,4.0,7.0,41,0.00,,,0.00,0.000000,,2013-03-13 11:32:00,
2013-03-13 04:42:00,52.0,29.0,-100.00,SSE,147,4.0,7.0,41,0.00,,,0.00,0.000000,,2013-03-13 11:42:00,
2013-03-13 04:52:00,52.0,29.0,-100.00,SSE,147,4.0,7.0,41,0.00,,,0.00,0.000000,,2013-03-13 11:52:00,
2013-03-13 05:22:00,53.0,25.0,-100.00,ESE,105,0.0,7.0,33,0.00,,,0.00,0.000000,,2013-03-13 12:22:00,
2013-03-13 06:22:00,54.0,27.0,-100.00,SE,129,2.0,6.0,35,-99.99,,,0.00,0.000000,,2013-03-13 13:22:00,
2013-03-13 07:21:00,50.0,30.0,-100.00,SSE,148,4.0,7.0,46,-99.99,,,0.00,0.000000,,2013-03-13 14:21:00,
2013-03-13 07:33:00,50.0,30.0,-100.00,SSE,148,4.0,7.0,46,-99.99,,,0.00,0.000000,,2013-03-13 14:33:00,
2013-03-13 07:42:00,50.0,30.0,-100.00,SSE,148,4.0,7.0,46,-99.99,,,0.00,0.000000,,2013-03-13 14:42:00,
2013-03-13 07:52:00,50.0,30.0,-100.00,SSE,148,4.0,7.0,46,-99.99,,,0.00,0.000000,,2013-03-13 14:52:00,
2013-03-13 09:22:00,63.0,35.0,-100.00,ESE,117,2.0,6.0,35,-99.99,,,0.00,193.000000,,2013-03-13 16:22:00,
2013-03-13 10:22:00,70.0,34.0,-100.00,SE,129,2.0,8.0,27,-99.99,,,0.00,479.000000,,2013-03-13 17:22:00,
2013-03-13 11:22:00,77.0,29.0,-100.00,WSW,242,1.0,5.0,17,-99.99,,,0.00,66.000000,,2013-03-13 18:22:00,
2013-03-13 12:22:00,76.0,36.0,-100.00,West,279,4.0,8.0,23,-99.99,,,0.00,763.000000,,2013-03-13 19:22:00,
2013-03-13 13:22:00,77.0,41.0,-100.00,West,274,4.0,10.0,28,-99.99,,,0.00,980.000000,,2013-03-13 20:22:00,
2013-03-13 13:32:00,77.0,41.0,-100.00,West,274,4.0,10.0,28,-99.99,,,0.00,980.000000,,2013-03-13 20:32:00,
2013-03-13 13:42:00,77.0,41.0,-100.00,West,274,4.0,10.0,28,-99.99,,,0.00,980.000000,,2013-03-13 20:42:00,
2013-03-13 13:52:00,77.0,41.0,-100.00,West,274,4.0,10.0,28,-99.99,,,0.00,980.000000,,2013-03-13 20:52:00,
2013-03-13 14:22:00,79.0,42.0,-100.00,WNW,300,3.0,9.0,27,0.00,,,-99.99,989.000000,,2013-03-13 21:22:00,
2013-03-13 14:32:00,79.0,42.0,-100.00,WNW,300,3.0,9.0,27,0.00,,,-99.99,989.000000,,2013-03-13 21:32:00,
2013-03-13 14:42:00,79.0,42.0,-100.00,WNW,300,3.0,9.0,27,0.00,,,-99.99,989.000000,,2013-03-13 21:42:00,
2013-03-13 14:51:00,79.0,42.0,-100.00,WNW,300,3.0,9.0,27,0.00,,,-99.99,989.000000,,2013-03-13 21:51:00,
2013-03-13 15:22:00,77.0,46.0,-100.00,WSW,252,5.0,9.0,34,-99.99,,,0.00,925.000000,,2013-03-13 22:22:00,
2013-03-13 15:32:00,77.0,46.0,-100.00,WSW,252,5.0,9.0,34,-99.99,,,0.00,925.000000,,2013-03-13 22:32:00,
2013-03-13 15:42:00,77.0,46.0,-100.00,WSW,252,5.0,9.0,34,-99.99,,,0.00,925.000000,,2013-03-13 22:42:00,
2013-03-13 15:52:00,77.0,46.0,-100.00,WSW,252,5.0,9.0,34,-99.99,,,0.00,925.000000,,2013-03-13 22:52:00,
2013-03-13 16:22:00,76.0,53.0,-100.00,NW,305,3.0,9.0,45,0.00,,,-99.99,787.000000,,2013-03-13 23:22:00,
2013-03-13 16:42:00,76.0,53.0,-100.00,NW,305,3.0,9.0,45,0.00,,,-99.99,787.000000,,2013-03-13 23:42:00,
2013-03-13 16:51:00,76.0,53.0,-100.00,NW,305,3.0,9.0,45,0.00,,,-99.99,787.000000,,2013-03-13 23:51:00,
2013-03-13 17:22:00,77.0,50.0,-100.00,West,267,2.0,8.0,39,0.00,,,0.00,584.000000,,2013-03-14 00:22:00,
2013-03-13 17:32:00,77.0,50.0,-100.00,West,267,2.0,8.0,39,0.00,,,0.00,584.000000,,2013-03-14 00:32:00,
2013-03-13 17:42:00,77.0,50.0,-100.00,West,267,2.0,8.0,39,0.00,,,0.00,584.000000,,2013-03-14 00:42:00,
2013-03-13 17:52:00,77.0,50.0,-100.00,West,267,2.0,8.0,39,0.00,,,0.00,584.000000,,2013-03-14 00:52:00,
2013-03-13 18:22:00,77.0,44.0,-100.00,NW,304,0.0,7.0,31,0.00,,,-99.99,352.000000,,2013-03-14 01:22:00,
2013-03-13 18:32:00,77.0,44.0,-100.00,NW,304,0.0,7.0,31,0.00,,,-99.99,352.000000,,2013-03-14 01:32:00,
2013-03-13 18:42:00,77.0,44.0,-100.00,NW,304,0.0,7.0,31,0.00,,,-99.99,352.000000,,2013-03-14 01:42:00,
2013-03-13 18:52:00,77.0,44.0,-100.00,NW,304,0.0,7.0,31,0.00,,,-99.99,352.000000,,2013-03-14 01:52:00,
2013-03-13 19:22:00,68.0,48.0,-100.00,ESE,122,0.0,4.0,48,-99.99,,,0.00,99.000000,,2013-03-14 02:22:00,
2013-03-13 19:32:00,68.0,48.0,-100.00,ESE,122,0.0,4.0,48,-99.99,,,0.00,99.000000,,2013-03-14 02:32:00,
2013-03-13 19:42:00,68.0,48.0,-100.00,ESE,122,0.0,4.0,48,-99.99,,,0.00,99.000000,,2013-03-14 02:42:00,
2013-03-13 19:51:00,68.0,48.0,-100.00,ESE,122,0.0,4.0,48,-99.99,,,0.00,99.000000,,2013-03-14 02:51:00,
2013-03-13 20:22:00,58.0,45.0,-100.00,ESE,111,0.0,3.0,62,0.00,,,0.00,0.000000,,2013-03-14 03:22:00,
2013-03-13 20:32:00,58.0,45.0,-100.00,ESE,111,0.0,3.0,62,0.00,,,0.00,0.000000,,2013-03-14 03:32:00,
2013-03-13 20:42:00,58.0,45.0,-100.00,ESE,111,0.0,3.0,62,0.00,,,0.00,0.000000,,2013-03-14 03:42:00,
2013-03-13 20:52:00,58.0,45.0,-100.00,ESE,111,0.0,3.0,62,0.00,,,0.00,0.000000,,2013-03-14 03:52:00,
2013-03-13 21:22:00,60.0,34.0,-100.00,ESE,121,4.0,9.0,37,0.00,,,0.00,0.000000,,2013-03-14 04:22:00,
2013-03-13 22:22:00,57.0,35.0,-100.00,ESE,116,2.0,9.0,43,0.00,,,0.00,0.000000,,2013-03-14 05:22:00,
2013-03-13 22:33:00,57.0,35.0,-100.00,ESE,116,2.0,9.0,43,0.00,,,0.00,0.000000,,2013-03-14 05:33:00,
2013-03-13 22:42:00,57.0,35.0,-100.00,ESE,116,2.0,9.0,43,0.00,,,0.00,0.000000,,2013-03-14 05:42:00,
2013-03-13 22:52:00,57.0,35.0,-100.00,ESE,116,2.0,9.0,43,0.00,,,0.00,0.000000,,2013-03-14 05:52:00,
2013-03-13 23:22:00,58.0,36.0,-100.00,ESE,116,1.0,8.0,44,0.00,,,0.00,0.000000,,2013-03-14 06:22:00,
2013-03-13 23:32:00,58.0,36.0,-100.00,ESE,116,1.0,8.0,44,0.00,,,0.00,0.000000,,2013-03-14 06:32:00,
2013-03-13 23:42:00,58.0,36.0,-100.00,ESE,116,1.0,8.0,44,0.00,,,0.00,0.000000,,2013-03-14 06:42:00,
2013-03-13 23:52:00,58.0,36.0,-100.00,ESE,116,1.0,8.0,44,0.00,,,0.00,0.000000,,2013-03-14 06:52:00,